Home > Weather > Kralendijk > Past weeks

Flag for Caribbean Netherlands Past Weather in Kralendijk, Bonaire, Caribbean Netherlands — Yesterday and Last 2 Weeks

Now
86 °F

Broken clouds.


Feels Like: 95 °F
Forecast: N/A
Wind: 22 mph from Southeast

Location: Flamingo Airport - Bonaire

Current Time: Jun 28, 2016 at 4:45:37 PM

Latest Report: Jun 28, 2016 at 3:55 PM


Visibility: N/A

Pressure: 29.89 "Hg

Humidity: 70%

Dew Point: 75 °F

Location of KralendijkLocation

Past Weather in Kralendijk — Graph

°F

Kralendijk Temperature Yesterday

Maximum temperature yesterday: 88 °F (at 10:55 AM)
Minimum temperature yesterday: 82 °F (at 12:55 AM)
Average temperature yesterday: 84 °F

High & Low Weather Summary for the Past Weeks

 TemperatureHumidityPressure
High90 °F (Jun 14, 11:55 AM)94% (Jun 24, 6:55 AM)30.07 "Hg (Jun 24, 6:55 AM)
Low79 °F (Jun 24, 6:55 AM)59% (Jun 15, 2:55 PM)29.83 "Hg (Jun 19, 4:55 PM)
Average84 °F73%29.94 "Hg
* Reported Jun 13 2:55 PM — Jun 28 2:55 PM, Kralendijk, Weather by CustomWeather, © 2016

Note: Actual official high and low records may vary slightly from our data, if they occured in-between our weather recording intervals... More about our weather records

Advertising

Kralendijk Weather History for the Previous 24 Hours

Scroll right to see more
 ConditionsComfort  
Time TempWeatherWind HumidityBarometerVisibility
2:55 PM
Tue, Jun 28
88 °FBroken clouds.22 mph66%29.89 "HgN/A
1:55 PM88 °FScattered clouds.21 mph66%29.92 "HgN/A
12:55 PM88 °FBroken clouds.21 mph66%29.92 "HgN/A
11:55 AM90 °FScattered clouds.20 mph63%29.95 "HgN/A
10:55 AM88 °FScattered clouds.20 mph66%29.95 "HgN/A
9:55 AM86 °FScattered clouds.20 mph66%29.95 "HgN/A
8:55 AM84 °FScattered clouds.20 mph74%29.95 "HgN/A
7:55 AM84 °FPassing clouds.N/A74%29.95 "HgN/A
6:55 AM82 °FPassing clouds.N/A74%29.92 "HgN/A
5:55 AM82 °FPassing clouds.N/A74%29.92 "HgN/A
4:55 AM82 °FPassing clouds.N/A74%29.89 "HgN/A
3:55 AM82 °FPartly cloudy.N/A74%29.89 "HgN/A
2:55 AM82 °FPassing clouds.N/A79%29.89 "HgN/A
1:55 AM82 °FPassing clouds.N/A79%29.92 "HgN/A
12:55 AM82 °FPassing clouds.N/A79%29.92 "HgN/A
11:55 PM
Mon, Jun 27
82 °FClear.N/A79%29.95 "HgN/A
10:55 PM82 °FPassing clouds.N/A79%29.95 "HgN/A
9:55 PM82 °FPassing clouds.N/A79%29.95 "HgN/A
8:55 PM82 °FPassing clouds.N/A79%29.92 "HgN/A
7:55 PM82 °FPassing clouds.18 mph79%29.89 "HgN/A
6:55 PM84 °FScattered clouds.20 mph74%29.89 "HgN/A
5:55 PM84 °FPartly sunny.21 mph74%29.86 "HgN/A
4:55 PM86 °FPassing clouds.N/A70%29.86 "HgN/A
Weather by CustomWeather, © 2016

See weather overviewHow to use our weather pages